Tracking 19827 objects as of 22-Aug-2019
HD Live streaming from Space Station
objects crossing your sky now

ATS 5 AKM

Track ATS 5 AKM now!


NORAD ID: 21052
Int'l Code: 1969-069C
Perigee: 35,857.8 km
Apogee: 36,921.7 km
Inclination: 6.9 °
Period: 1,466.7 minutes
Semi major axis: 42760 km
RCS: 0.003 m2 (small)
Launch date: August 12, 1969
Source: United States (US)
Launch site: AIR FORCE EASTERN TEST RANGE (AFETR)

Note: This is a ROCKET BODY
aabbcc
Your satellite tracking list
Your tracking list is empty




NASA's NSSDC Master Catalog

Two Line Element Set (TLE):
1 21052U 69069C   19233.05234463 -.00000268 +00000-0 +00000-0 0  9992
2 21052 006.9020 298.7067 0124407 234.9218 142.4479 00.98182732021919
Source of the keplerian elements: AFSPC